DECAYED

OBJECT G, 59057 (Decayed)

Orbit data source: Space-Track

You're viewing an Uncataloged Satellite

Recently launched and/or uncataloged satellites may have evolving metadata. Metadata may include but not limited to: Owner, Maufacturer, Bus, Motor, and Mission.

OBJECT G, 59057 was a satellite in LEO that was launched on Thu, 29 Feb 2024 UTC via a SOYUZ-2-1B launch vehicle from the Vostochny Cosmodrome (VOSTO). Unknown objects in Earth's orbit typically refer to objects detected orbiting the Earth but have not yet been identified or cataloged. These objects could be anything from previously untracked satellites, spent rocket stages, debris from satellite collisions, or even natural meteoroids temporarily captured by Earth's gravity. This object's orbit decayed before it could be identified.

Not visible in the next 10 days
Identifier
59057, 2024-039G
Orbit
Decayed
Country
Flag of TBDTBD
Related business
Manufacturer
Sputniks
Mission
Decayed Commercial Communications
Bus & Motor
CUBESAT 3U?, Unknown motor
Mass
3 kg wet, 3 kg dry
Launch date (UTC)
2024-02-29 (2 years ago)
Launch vehicle
SOYUZ-2-1B
Launch site
Vostochny Cosmodrome (VOSTO)
Object type
Unknown
Shape & HBR
Box, 0.1 m
Radar Cross Section
0.035 m², Medium (>0.1 m² and < 1m²)

Expand to show TLE details & history
Last TLE update: 1 year ago

TLE from 1 year ago
0 OBJECT G
1 59057U 24039G   25132.22606553  .08814262  25991-5  81673-3 0  9996
2 59057  97.4006 109.1318 0009203 217.1858 142.8804 16.38741284 67557
Epoch: 2025-05-12T05:25Z
TLE epoch observation values (Epoch: 2025-05-12T05:25:32.061Z)
Latitude
-0.00008°
Longitude
157.50603°
Altitude
177.21 km
Speed
7.797 km/s
True Right ascension
07h 16m 31s
True Declination
0° 00' 00"
Sunlit
Object was in daylight at epoch
Visualization orbit readout
Latitude
Unknown
Longitude
Unknown
Altitude
Unknown
Speed
Unknown
Apparent Right ascension
Unknown
Apparent Declination
Unknown
Sunlit
N/A
Visualization observer readout
Local Sidereal Time
06:47:10
Azimuth
Unknown
Elevation
Unknown
Doppler factor
Unknown
Orbital elements
Apogee altitude
171.985 km
Perigee altitude
159.94 km
Semi-major axis
6,544.099 km
Eccentricity
0.00092
Inclination
97.4006°
RAAN
109.1318°
Arg. of periapsis
217.1858°
True anomaly
142.94398°
Mean anomaly
142.8804°
Eccentric anomaly
142.9122°
Mean motion
4.09985 °/min
Orbital period
87.81 mins
BSTAR
0.00081673
Loading maneuver chart data...
Computing Atmospheric mass density...
Loading historical data...
Loading historical data...
Loading historical data...
Loading historical data...
Loading historical data...
Loading historical data...
Loading historical data...

Documentation

Showing up to 5 results
|